DW9417 Weather Reports


Display with metric or nautical units.
time (UTC)temp
F
wind
direction
speed
MPH
gust
MPH
rain 1hr
in
rain 24hr
in
rain mn
in
humidity
%
barometer
mb
20260504233043 43 86 0.0 0.0 0.00 0.00 0.00 92 1027.4
20260504231551 43 90 0.0 0.0 0.00 0.00 0.00 91 1027.3
20260504230039 43 90 0.0 0.0 0.00 0.00 0.00 91 1027.2
20260504224539 43 90 0.0 0.0 0.00 0.00 0.00 91 1027.1
20260504223039 43 90 0.0 0.0 0.00 0.00 0.00 91 1026.9
20260504221536 43 90 0.0 0.0 0.00 0.00 0.00 90 1026.9
20260504220025 43 90 0.0 0.0 0.00 0.00 0.00 90 1026.9
20260504214533 44 91 0.0 0.0 0.00 0.01 0.00 90 1026.8
20260504213028 44 91 0.0 0.0 0.00 0.01 0.00 90 1026.7
20260504211522 44 91 0.0 0.0 0.00 0.01 0.00 90 1026.7
20260504210021 44 92 0.0 0.0 0.00 0.01 0.00 91 1026.8
20260504204549 43 91 0.0 0.0 0.00 0.01 0.00 90 1026.8
20260504203024 43 91 0.0 0.0 0.00 0.01 0.00 90 1026.9
20260504201518 43 91 0.0 0.0 0.00 0.01 0.00 90 1026.7
20260504200016 43 92 0.0 0.0 0.00 0.01 0.00 88 1026.5
20260504194513 44 92 0.0 0.0 0.00 0.01 0.00 89 1026.5
20260504193021 44 92 0.0 0.0 0.00 0.01 0.00 88 1026.6
20260504191510 45 92 0.0 0.0 0.00 0.01 0.00 89 1026.6
20260504190010 45 92 0.0 0.0 0.00 0.01 0.00 87 1026.8
20260504184507 46 92 0.0 0.0 0.00 0.01 0.00 88 1026.7
20260504183005 45 92 0.0 0.0 0.00 0.01 0.00 88 1026.7
20260504181508 45 92 0.0 0.0 0.00 0.01 0.00 87 1026.7
20260504180001 46 92 0.0 0.0 0.00 0.01 0.00 87 1026.8
20260504174600 46 92 0.0 0.0 0.00 0.01 0.00 86 1026.9
20260504173101 47 92 0.0 0.0 0.00 0.01 0.00 86 1026.8
20260504171557 47 92 0.0 0.0 0.00 0.01 0.00 83 1026.8
20260504081529 67 111 4.0 7.0 0.00 0.01 0.01 55 1025.8
20260504044602 64 109 3.0 9.0 0.00 0.01 0.01 62 1027.0
20260504043054 63 76 5.0 9.0 0.00 0.01 0.01 62 1027.2
20260504041552 62 80 3.0 12.0 0.00 0.01 0.01 66 1027.5
20260504040051 62 100 4.0 9.0 0.00 0.01 0.01 66 1027.8
20260504034606 62 113 5.0 11.0 0.00 0.01 0.01 67 1028.0
20260504033049 62 60 4.0 10.0 0.00 0.01 0.01 66 1028.3
20260504031548 60 58 5.0 11.0 0.00 0.01 0.01 70 1028.5
20260504030046 61 49 5.0 11.0 0.00 0.01 0.01 69 1028.6
20260504024543 60 58 7.0 13.0 0.00 0.01 0.01 70 1028.7
20260504023042 60 56 4.0 11.0 0.00 0.01 0.01 71 1029.0
20260504021541 60 104 5.0 11.0 0.00 0.01 0.01 72 1028.9
20260504020039 59 42 6.0 11.0 0.00 0.01 0.01 73 1029.1
20260504014550 59 92 7.0 12.0 0.00 0.01 0.01 74 1029.0
20260504013035 58 99 8.0 12.0 0.00 0.01 0.01 76 1029.0
20260504011531 57 53 4.0 10.0 0.00 0.01 0.01 80 1029.1
20260504010026 55 45 5.0 9.0 0.00 0.01 0.01 84 1029.3
20260504004523 52 65 1.0 3.0 0.00 0.01 0.01 92 1029.4
20260504003018 50 221 0.0 0.0 0.00 0.01 0.01 93 1029.3
20260504001514 49 221 0.0 0.0 0.00 0.01 0.01 93 1029.2
20260504000009 47 221 0.0 0.0 0.00 0.01 0.01 92 1029.1
20260503234514 46 219 0.0 0.0 0.00 0.01 0.01 92 1029.0